Regional Weather Roundup
Issued by NWS Northern Indiana

Home | Current Version | Previous Version | Graphics & Text | Print | Product List | Glossary On
Versions: 1 2 3 4 5 6 7 8 9 10 11 12 13 14 15 16 17 18 19 20 21 22 23 24 25 26 27 28 29 30 31 32 33 34 35 36 37 38 39 40 41 42 43 44 45 46 47 48 49 50
000
ASUS43 KIWX 220310
RWRIWX

KIWX WEATHER ROUNDUP
NATIONAL WEATHER SERVICE NORTHERN INDIANA
1000 PM EST SUN DEC 21 2014

NOTE: "FAIR" INDICATES FEW OR NO CLOUDS BELOW 12,000 FEET WITH NO
SIGNIFICANT WEATHER AND/OR OBSTRUCTIONS TO VISIBILITY.

* THESE STATIONS ARE NOT UNDER NWS QUALITY CONTROL. THEY ALSO MAY NOT
  REPORT WEATHER SUCH AS PRECIPITATION OR FOG.

INZ001>027-220400-
NORTHERN INDIANA

CITY           SKY/WX    TMP DP  RH WIND       PRES   REMARKS
GARY*          PTCLDY    34  26  71 SE8       30.07F WCI  28
VALPARAISO     PTCLDY    30  26  85 SE8       30.09F WCI  22
MICHIGAN CITY* PTCLDY    32  25  74 SE6       30.09F WCI  26
LAPORTE*       PTCLDY    32  29  90 SE6       30.10F FOG     WCI  26
KNOX*          PTCLDY    31  24  77 SE10      30.10S WCI  22
SOUTH BEND     NOT AVBL
GOSHEN         CLEAR     30  25  81 SE9       30.12S WCI  22
MONTICELLO*    PTCLDY    31  28  88 SE3       30.10F
LOGANSPORT*    PTCLDY    30  27  86 E7        30.11F FOG     WCI  23
ROCHESTER*     CLEAR     32  30  93 SE9       30.12S FOG     WCI  24
WARSAW*        CLEAR     30  27  86 SE6       30.13S FOG     WCI  24
ANGOLA*        CLEAR     27  25  93 SE8       30.14S WCI  18
FORT WAYNE     PTCLDY    29  25  85 SE6       30.15F WCI  23
HUNTINGTON*    CLEAR     29  26  87 E6        30.13F WCI  23
PERU/GRISSOM   PTCLDY    30  30 100 SE12      30.11S WCI  21
MARION*        PTCLDY    29  26  85 SE7       30.13S WCI  22

$$
INZ028>050-220400-
CENTRAL INDIANA

CITY           SKY/WX    TMP DP  RH WIND       PRES   REMARKS
LAFAYETTE      PTCLDY    28  25  88 E7        30.09F WCI  21
KOKOMO*        PTCLDY    30  27  86 SE8       30.11F WCI  23
MUNCIE*        CLEAR     30  25  81 SE7       30.13S WCI  23
INDIANAPOLIS   MOCLDY    30  25  81 E10       30.08F WCI  21

$$
MIZ043>046-050>051-056>058-064>065-071>073-077>080-220400-
SOUTHWEST LOWER MICHIGAN

CITY           SKY/WX    TMP DP  RH WIND       PRES   REMARKS
BATTLE CREEK   CLEAR     30  24  78 SE8       30.14F WCI  22
BENTON HARBOR  MOCLDY    30  26  85 SE9       30.10F WCI  22
COLDWATER*     PTCLDY    29  25  85 MISG      30.14S FOG
HILLSDALE*     PTCLDY    29  26  89 SE8       30.14F WCI  21
HOLLAND        CLOUDY    33  26  75 SE12      30.12F WCI  24
GRAND RAPIDS   MOCLDY    29  24  82 SE10      30.14S HAZE    WCI  20
KALAMAZOO      CLEAR     29  24  82 SE5       30.14F HAZE    WCI  24
STURGIS*       CLEAR     28  27  93 SE7       30.13S FOG     WCI  21
THREE RIVERS*  FAIR      29  25  84 SE5       30.14S FOG     WCI  24

$$
OHZ001>008-015>018-024>025-220400-
NORTHWEST OHIO

CITY           SKY/WX    TMP DP  RH WIND       PRES   REMARKS
WAUSEON*       FAIR      28  25  86 E8        30.18S WCI  20
DEFIANCE       CLEAR     28  23  81 E6        30.18S WCI  22
FINDLAY        CLEAR     29  22  75 E6        30.17F WCI  23
TOLEDO EXPRESS PTCLDY    27  22  81 E3        30.19F
TOLEDO METCALF CLEAR     27  22  81 E8        30.21F WCI  19
LIMA           CLEAR     30  23  75 SE8       30.16S WCI  22

$$
AND FOR LAKE MICHIGAN COASTAL AND OPEN LAKE BUOY OBSERVATIONS

STATION/POSITION TEMP    WIND        PRES    VSBY  WAVE
                 AIR SEA DIR/SP/G                  HT/PER
                 (F)     (DEG/KT/KT) (MB)    (MI)  (FT/S)
CALUMET HARBOR    34     140/  9/ 14 1016.9F
SAINT JOSEPH      32      CALM  /  5 1020.0R
MICHIGAN CITY CG     37                N/A       6   1

$$
&&



USA.gov is the U.S. government's official web portal to all federal, state and local government web resources and services.